Flight Track Log - Related Links

Times and Time Zones

All times are in EDT time to prevent confusion due to time zone crossing. See the ASQ5139 flight status page for this flight to view local times or setup timezone preferences in your user account.

Time Position Orientation Groundspeed Altitude Reporting Facility
EDT Latitude Longitude Course Direction KTS MPH feet Rate Location/Type
07:21PM 33.6500 -84.4500 292° West 156 180 1,900  Level Atlanta TRACON
07:22PM 33.6667 -84.5000 292° West 216 249 3,700 2,143 Climbing Atlanta TRACON
07:23PM 33.7167 -84.5833 306° West 280 322 6,400 2,524 Climbing Atlanta TRACON
07:24PM 33.7833 -84.5833 360° North 276 318 9,000 2,063 Climbing Atlanta TRACON
07:27PM 33.9336 -84.4119 43° Northeast 327 376 13,000 1,781 Climbing Atlanta Center
07:28PM 34.0233 -84.3722 20° North 345 397 14,700 1,700 Climbing Atlanta Center
07:29PM 34.1236 -84.3375 16° North 351 404 16,400 1,700 Climbing Atlanta Center
07:30PM 34.2344 -84.2975 17° North 380 437 18,100 1,700 Climbing Atlanta Center
07:31PM 34.3431 -84.2678 13° North 399 459 19,800 1,650 Climbing Atlanta Center
07:32PM 34.4536 -84.2428 11° North 399 459 21,400 1,550 Climbing Atlanta Center
07:33PM 34.5664 -84.2153 11° North 404 465 22,900 1,300 Climbing Atlanta Center
07:34PM 34.6792 -84.1903 10° North 417 480 24,000 1,150 Climbing Atlanta Center
07:35PM 34.7981 -84.1628 11° North 417 480 25,200 1,150 Climbing Atlanta Center
07:36PM 34.9169 -84.1350 11° North 422 486 26,300 1,050 Climbing Atlanta Center
07:37PM 35.0381 -84.1047 12° North 433 498 27,300 1,100 Climbing Atlanta Center
07:38PM 35.1633 -84.0769 10° North 439 505 28,500 1,300 Climbing Atlanta Center
07:39PM 35.2781 -84.0261 20° North 439 505 29,900 1,250 Climbing Atlanta Center
07:40PM 35.3864 -83.9497 30° Northeast 439 505 31,000 550 Climbing Atlanta Center
07:41PM 35.4969 -83.8703 30° Northeast 446 513 31,000  Level Atlanta Center
07:42PM 35.6136 -83.7858 30° Northeast 462 532 31,000 500 Level Atlanta Center
07:43PM 35.7303 -83.7061 29° Northeast 473 544 32,000 500 Climbing Atlanta Center
07:44PM 35.8469 -83.6236 30° Northeast 473 544 32,000  Level Atlanta Center
07:45PM 35.9656 -83.5411 29° Northeast 478 550 32,000  Level Atlanta Center
07:46PM 36.0694 -83.4633 31° Northeast 478 550 32,000  Level Atlanta Center
07:46PM 36.1847 -83.3783 31° Northeast 483 556 32,000  Level Indianapolis Center
07:48PM 36.2958 -83.3019 29° Northeast 471 542 32,000  Level Atlanta Center
07:49PM 36.4153 -83.2133 31° Northeast 481 554 32,000  Level Indianapolis Center
07:50PM 36.5289 -83.1300 31° Northeast 478 550 32,000  Level Indianapolis Center
07:51PM 36.6433 -83.0475 30° Northeast 477 549 32,000  Level Indianapolis Center
07:52PM 36.7764 -82.9500 30° Northeast 476 548 32,000  Level Indianapolis Center
07:53PM 36.8739 -82.8769 31° Northeast 476 548 32,000  Level Indianapolis Center
07:54PM 36.9986 -82.7867 30° Northeast 477 549 32,000  Level Indianapolis Center
07:55PM 37.1114 -82.7039 30° Northeast 476 548 32,000 537 Level Indianapolis Center
07:56PM 37.2439 -82.6064 30° Northeast 475 547 33,100 968 Climbing Indianapolis Center
07:57PM 37.3558 -82.5233 31° Northeast 471 542 34,000 780 Climbing Indianapolis Center
07:58PM 37.4686 -82.4392 31° Northeast 469 540 34,700 488 Climbing Indianapolis Center
07:59PM 37.5803 -82.3553 31° Northeast 469 540 35,000 146 Climbing Indianapolis Center
08:00PM 37.6922 -82.2708 31° Northeast 469 540 35,000  Level Indianapolis Center
08:01PM 37.8036 -82.1869 31° Northeast 468 539 35,000  Level Indianapolis Center
08:02PM 37.9131 -82.1036 31° Northeast 468 539 35,000  Level Indianapolis Center
08:03PM 38.0464 -82.0022 31° Northeast 467 537 35,000  Level Indianapolis Center
08:04PM 38.1581 -81.9175 31° Northeast 467 537 35,000  Level Indianapolis Center
08:05PM 38.2689 -81.8319 31° Northeast 466 536 35,000  Level Indianapolis Center
08:06PM 38.3747 -81.7350 36° Northeast 471 542 35,000  Level Indianapolis Center
08:07PM 38.4614 -81.6103 48° Northeast 474 545 35,000  Level Indianapolis Center
08:08PM 38.5483 -81.4850 48° Northeast 475 547 35,000  Level Indianapolis Center
08:09PM 38.6514 -81.3353 49° Northeast 476 548 35,000  Level Indianapolis Center
08:10PM 38.7386 -81.2117 48° Northeast 476 548 35,000  Level Indianapolis Center
08:11PM 38.8261 -81.0864 48° Northeast 476 548 35,000  Level Indianapolis Center
08:12PM 38.9142 -80.9600 48° Northeast 476 548 35,000  Level Indianapolis Center
08:13PM 39.0006 -80.8333 49° Northeast 476 548 35,000  Level Indianapolis Center
08:14PM 39.0886 -80.7083 48° Northeast 475 547 35,000  Level Indianapolis Center
08:15PM 39.1778 -80.5842 47° Northeast 473 544 35,000  Level Indianapolis Center
08:16PM 39.2667 -80.4614 47° Northeast 473 544 35,000  Level Indianapolis Center
08:17PM 39.3739 -80.3128 47° Northeast 471 542 35,000  Level Indianapolis Center
08:18PM 39.4619 -80.1872 48° Northeast 471 542 35,000  Level Indianapolis Center
08:19PM 39.5283 -80.0942 47° Northeast 473 544 35,000  Level Cleveland Center
08:20PM 39.6147 -79.9661 49° Northeast 474 545 35,000  Level Cleveland Center
08:21PM 39.7031 -79.8358 49° Northeast 476 548 35,000  Level Cleveland Center
08:22PM 39.8086 -79.6806 48° Northeast 476 548 35,000  Level Cleveland Center
08:23PM 39.8958 -79.5497 49° Northeast 478 550 35,000  Level Cleveland Center
08:24PM 39.9833 -79.4200 49° Northeast 478 550 35,000  Level Cleveland Center
08:25PM 40.0653 -79.2967 49° Northeast 477 549 35,000  Level Cleveland Center
08:26PM 40.1686 -79.1394 49° Northeast 477 549 35,000  Level Cleveland Center
08:27PM 40.2544 -79.0111 49° Northeast 475 547 35,000  Level Cleveland Center
08:28PM 40.3400 -78.8797 49° Northeast 476 548 35,000  Level Cleveland Center
08:29PM 40.4297 -78.7433 49° Northeast 475 547 35,000  Level Cleveland Center
08:31PM 40.5031 -78.6325 49° Northeast 475 547 35,000  Level Cleveland Center
08:32PM 40.6125 -78.4633 50° Northeast 475 547 35,000  Level Cleveland Center
08:33PM 40.6958 -78.3350 49° Northeast 473 544 35,000  Level Cleveland Center
08:34PM 40.7803 -78.2042 50° Northeast 474 545 35,000  Level Cleveland Center
08:35PM 40.8631 -78.0742 50° Northeast 474 545 35,000  Level Cleveland Center
08:36PM 40.9628 -77.9164 50° Northeast 472 543 35,000  Level Cleveland Center
08:37PM 41.0422 -77.7783 53° Northeast 475 547 35,000  Level Cleveland Center
08:38PM 41.1319 -77.6603 45° Northeast 460 529 35,000  Level Cleveland Center
08:39PM 41.2244 -77.5436 43° Northeast 460 529 35,000  Level Cleveland Center
08:40PM 41.3167 -77.4272 43° Northeast 461 531 35,000  Level Cleveland Center
08:41PM 41.4269 -77.2911 43° Northeast 456 525 35,000  Level Cleveland Center
08:42PM 41.5172 -77.1742 44° Northeast 456 525 35,000  Level Cleveland Center
08:43PM 41.6081 -77.0581 44° Northeast 456 525 35,000  Level Cleveland Center
08:44PM 41.7139 -76.9258 43° Northeast 456 525 35,000  Level New York Center
08:46PM 41.8486 -76.7531 44° Northeast 457 526 35,000  Level Boston Center
08:47PM 41.9392 -76.6353 44° Northeast 457 526 35,000  Level Boston Center
08:48PM 42.0300 -76.5189 44° Northeast 455 524 35,000  Level Boston Center
08:49PM 42.1203 -76.4014 44° Northeast 454 522 35,000  Level Boston Center
08:50PM 42.2108 -76.2839 44° Northeast 454 522 35,000  Level Boston Center
08:51PM 42.2997 -76.1667 44° Northeast 453 521 35,000  Level Boston Center
08:52PM 42.3897 -76.0478 44° Northeast 452 520 35,000  Level Boston Center
08:53PM 42.4792 -75.9306 44° Northeast 451 519 35,000 -341 Level Boston Center
08:54PM 42.5700 -75.8092 45° Northeast 454 522 34,300 -927 Descending Boston Center
08:55PM 42.6778 -75.6631 45° Northeast 456 525 33,100 -1,091 Descending Boston Center
08:56PM 42.7689 -75.5428 44° Northeast 457 526 32,100 -984 Descending Boston Center
08:57PM 42.8586 -75.4225 44° Northeast 457 526 31,100 -992 Descending Boston Center
08:58PM 42.9464 -75.3022 45° Northeast 453 521 30,100 -976 Descending Boston Center
08:59PM 43.0342 -75.1847 44° Northeast 449 517 29,100 -984 Descending Boston Center
09:00PM 43.1197 -75.0672 45° Northeast 447 514 28,100 -958 Descending Boston Center
09:01PM 43.2042 -74.9511 45° Northeast 442 509 27,200 -934 Descending Boston Center
09:02PM 43.2886 -74.8358 45° Northeast 439 505 26,200 -1,082 Descending Boston Center
09:03PM 43.3900 -74.6950 45° Northeast 437 503 25,000 -1,073 Descending Boston Center
09:04PM 43.4750 -74.5772 45° Northeast 437 503 24,000 -968 Descending Boston Center
09:05PM 43.5603 -74.4578 45° Northeast 438 504 23,000 -1,122 Descending Boston Center
09:06PM 43.6453 -74.3392 45° Northeast 438 504 21,700 -1,400 Descending Boston Center
09:07PM 43.7289 -74.2222 45° Northeast 432 497 20,200 -1,500 Descending Boston Center
09:08PM 43.8086 -74.1103 45° Northeast 416 479 18,700 -1,672 Descending Boston Center
09:09PM 43.8842 -74.0033 46° Northeast 394 453 16,800 -2,115 Descending Boston Center
09:10PM 43.9611 -73.8917 46° Northeast 377 434 14,400 -2,129 Descending Boston Center
09:11PM 44.0364 -73.7853 45° Northeast 364 419 12,400 -1,645 Descending Boston Center
09:12PM 44.1028 -73.6900 46° Northeast 349 402 11,000 -1,033 Descending Boston Center
09:13PM 44.1536 -73.6150 47° Northeast 272 313 10,300 -1,279 Descending Boston Center
09:14PM 44.2003 -73.5481 46° Northeast 248 285 8,400 -1,770 Descending Boston Center
09:15PM 44.2364 -73.4661 58° Northeast 240 276 6,700 -1,672 Descending Boston Center
09:16PM 44.2508 -73.3778 77° East 239 275 5,000 -1,339 Descending Boston Center
09:17PM 44.2639 -73.2981 77° East 217 250 4,000 -496 Descending Boston Center
09:18PM 44.2911 -73.2256 62° Northeast 197 227 4,000  Level Boston Center
09:19PM 44.3211 -73.1597 57° Northeast 201 231 4,000 -49 Level Boston Center
09:20PM 44.3567 -73.1186 40° Northeast 160 184 3,900 -488 Descending Boston Center
09:21PM 44.3867 -73.0906 34° Northeast 132 152 3,000 -1,041 Descending Boston Center
09:22PM 44.4194 -73.0761 17° North 126 145 1,800 -992 Descending Boston Center
09:23PM 44.4486 -73.1142 317° Northwest 133 153 1,000 -738 Descending Boston Center
09:24PM 44.4725 -73.1528 311° West 133 153 300 -689 Descending Boston Center

Login

Don't have an account? Register now (free) for customized features, flight alerts, and more!